,,Stat5,,Stat1,,Stat2,,Stat3,,Stat4,,Wind1,,Wind1,
time,status,PA1M_AVG,status,PR1M_SUM,status,RH1M_AVG,status,SR1M_AVG,status,TA1M_AVG,status,W1dAve1m,status,W1sAve1m,
2000-04-05, 00:00:00,VALID,917.649,VALID,0,VALID,98.103,VALID,-0.0339617,VALID,20.2934,VALID,98,VALID,0,
2000-04-05, 00:01:00,VALID,917.665,VALID,0,VALID,98.2315,VALID,-0.0169808,VALID,20.3292,VALID,98,VALID,0,
2000-04-05, 00:02:00,VALID,917.655,VALID,0,VALID,98.2404,VALID,0,VALID,20.33,VALID,98,VALID,0,
2000-04-05, 00:03:00,VALID,917.662,VALID,0,VALID,98.2276,VALID,0,VALID,20.3165,VALID,98,VALID,0,
2000-04-05, 00:04:00,VALID,917.652,VALID,0,VALID,98.2607,VALID,-0.0169808,VALID,20.3265,VALID,98,VALID,0,
2000-04-05, 00:05:00,VALID,917.649,VALID,0,VALID,98.2454,VALID,0,VALID,20.3165,VALID,98,VALID,0,
2000-04-05, 00:06:00,VALID,917.64,VALID,0,VALID,98.2683,VALID,-0.0169808,VALID,20.3101,VALID,98,VALID,0,
2000-04-05, 00:07:00,VALID,917.624,VALID,0,VALID,98.2594,VALID,0,VALID,20.3138,VALID,98,VALID,0,
2000-04-05, 00:08:00,VALID,917.617,VALID,0,VALID,98.2899,VALID,-0.0169808,VALID,20.3004,VALID,98,VALID,0,
2000-04-05, 00:09:00,VALID,917.601,VALID,0,VALID,98.2747,VALID,-0.0169808,VALID,20.3011,VALID,98,VALID,0,
2000-04-05, 00:10:00,VALID,917.592,VALID,0,VALID,98.2429,VALID,0,VALID,20.2812,VALID,98,VALID,0,
2000-04-05, 00:11:00,VALID,917.584,VALID,0,VALID,98.2327,VALID,-0.0169808,VALID,20.2683,VALID,98,VALID,0,
2000-04-05, 00:12:00,VALID,917.565,VALID,0,VALID,98.2353,VALID,-0.0169808,VALID,20.2551,VALID,98,VALID,0,
2000-04-05, 00:13:00,VALID,917.561,VALID,0,VALID,98.2531,VALID,0,VALID,20.2484,VALID,98,VALID,0,
2000-04-05, 00:14:00,VALID,917.55,VALID,0,VALID,98.2518,VALID,-0.0169808,VALID,20.2492,VALID,98,VALID,0,
2000-04-05, 00:15:00,VALID,917.543,VALID,0,VALID,98.3077,VALID,-0.0339617,VALID,20.2621,VALID,98,VALID,0,
2000-04-05, 00:16:00,VALID,917.529,VALID,0,VALID,98.3879,VALID,-0.0339617,VALID,20.2683,VALID,98,VALID,0,
2000-04-05, 00:17:00,VALID,917.523,VALID,0,VALID,98.3929,VALID,-0.0339617,VALID,20.2718,VALID,98,VALID,0,
2000-04-05, 00:18:00,VALID,917.515,VALID,0,VALID,98.3637,VALID,-0.0169808,VALID,20.2584,VALID,98,VALID,0,
2000-04-05, 00:19:00,VALID,917.508,VALID,0,VALID,98.3281,VALID,-0.0169808,VALID,20.2452,VALID,98,VALID,0,
2000-04-05, 00:20:00,VALID,917.496,VALID,0,VALID,98.3472,VALID,0,VALID,20.2556,VALID,98,VALID,0,
2000-04-05, 00:21:00,VALID,917.485,VALID,0,VALID,98.3484,VALID,0,VALID,20.2489,VALID,98,VALID,0,
2000-04-05, 00:22:00,VALID,917.461,VALID,0,VALID,98.3904,VALID,-0.0169808,VALID,20.2293,VALID,98,VALID,0,
2000-04-05, 00:23:00,VALID,917.454,VALID,0,VALID,98.4082,VALID,0.0169808,VALID,20.2492,VALID,98,VALID,0,
2000-04-05, 00:24:00,VALID,917.447,VALID,0,VALID,98.4095,VALID,0,VALID,20.242,VALID,125,VALID,0,
2000-04-05, 00:25:00,VALID,917.45,VALID,0,VALID,98.3828,VALID,0,VALID,20.2258,VALID,149,VALID,0,
2000-04-05, 00:26:00,VALID,917.446,VALID,0,VALID,98.4044,VALID,0,VALID,20.2295,VALID,150,VALID,0,
2000-04-05, 00:27:00,VALID,917.425,VALID,0,VALID,98.4209,VALID,0,VALID,20.2196,VALID,150,VALID,0,
2000-04-05, 00:28:00,VALID,917.41,VALID,0,VALID,98.4044,VALID,0,VALID,20.2231,VALID,153,VALID,0,
2000-04-05, 00:29:00,VALID,917.376,VALID,0,VALID,98.3866,VALID,0,VALID,20.2104,VALID,162,VALID,0,
2000-04-05, 00:30:00,VALID,917.357,VALID,0,VALID,98.4196,VALID,0,VALID,20.2104,VALID,158,VALID,0,
2000-04-05, 00:31:00,VALID,917.359,VALID,0,VALID,98.4273,VALID,0,VALID,20.2005,VALID,156,VALID,0,
2000-04-05, 00:32:00,VALID,917.341,VALID,0,VALID,98.3484,VALID,0,VALID,20.1617,VALID,155,VALID,0,
2000-04-05, 00:33:00,VALID,917.328,VALID,0,VALID,98.3459,VALID,-0.0169808,VALID,20.1391,VALID,155,VALID,0,
2000-04-05, 00:34:00,VALID,917.304,VALID,0,VALID,98.379,VALID,0,VALID,20.155,VALID,155,VALID,0,
2000-04-05, 00:35:00,VALID,917.293,VALID,0,VALID,98.3866,VALID,0.0339617,VALID,20.1523,VALID,155,VALID,0,
2000-04-05, 00:36:00,VALID,917.268,VALID,0,VALID,98.4273,VALID,-0.0849042,VALID,20.1535,VALID,155,VALID,0,
2000-04-05, 00:37:00,VALID,917.267,VALID,0,VALID,98.5354,VALID,-0.0849042,VALID,20.1662,VALID,155,VALID,0,
2000-04-05, 00:38:00,VALID,917.26,VALID,0,VALID,98.5761,VALID,-0.101885,VALID,20.1786,VALID,154,VALID,0,
2000-04-05, 00:39:00,VALID,917.257,VALID,0,VALID,98.4845,VALID,-0.0679233,VALID,20.1562,VALID,150,VALID,0,
2000-04-05, 00:40:00,VALID,917.26,VALID,0,VALID,98.4413,VALID,-0.0849042,VALID,20.1379,VALID,138,VALID,0,
2000-04-05, 00:41:00,VALID,917.259,VALID,0,VALID,98.4235,VALID,-0.0849042,VALID,20.1212,VALID,137,VALID,0,
2000-04-05, 00:42:00,VALID,917.248,VALID,0,VALID,98.3968,VALID,-0.101885,VALID,20.1048,VALID,137,VALID,0,
2000-04-05, 00:43:00,VALID,917.23,VALID,0,VALID,98.3612,VALID,-0.0849042,VALID,20.0924,VALID,137,VALID,0,
2000-04-05, 00:44:00,VALID,917.217,VALID,0,VALID,98.3891,VALID,-0.101885,VALID,20.076,VALID,130,VALID,0,
2000-04-05, 00:45:00,VALID,917.195,VALID,0,VALID,98.4527,VALID,-0.0849042,VALID,20.0755,VALID,129,VALID,0,
2000-04-05, 00:46:00,VALID,917.18,VALID,0,VALID,98.4934,VALID,-0.101885,VALID,20.0755,VALID,129,VALID,0,
2000-04-05, 00:47:00,VALID,917.155,VALID,0,VALID,98.4909,VALID,-0.101885,VALID,20.066,VALID,129,VALID,0,
2000-04-05, 00:48:00,VALID,917.138,VALID,0,VALID,98.4921,VALID,-0.118866,VALID,20.0668,VALID,129,VALID,0,
2000-04-05, 00:49:00,VALID,917.127,VALID,0,VALID,98.5125,VALID,-0.135847,VALID,20.0566,VALID,135,VALID,0,
2000-04-05, 00:50:00,VALID,917.099,VALID,0,VALID,98.5112,VALID,-0.101885,VALID,20.067,VALID,171,VALID,0,
2000-04-05, 00:51:00,VALID,917.083,VALID,0,VALID,98.4769,VALID,-0.0169808,VALID,20.026,VALID,171,VALID,0,
2000-04-05, 00:52:00,VALID,917.083,VALID,0,VALID,98.4362,VALID,0,VALID,20.0074,VALID,171,VALID,0,
2000-04-05, 00:53:00,VALID,917.064,VALID,0,VALID,98.4489,VALID,0,VALID,19.9942,VALID,171,VALID,0,
2000-04-05, 00:54:00,VALID,917.065,VALID,0,VALID,98.4985,VALID,-0.0679233,VALID,19.9974,VALID,171,VALID,0,
2000-04-05, 00:55:00,VALID,917.053,VALID,0,VALID,98.4883,VALID,-0.0509425,VALID,19.9713,VALID,171,VALID,0,
2000-04-05, 00:56:00,VALID,917.048,VALID,0,VALID,98.543,VALID,0,VALID,19.9942,VALID,171,VALID,0,
2000-04-05, 00:57:00,VALID,917.032,VALID,0,VALID,98.6129,VALID,0.0169808,VALID,20.0002,VALID,171,VALID,0,
2000-04-05, 00:58:00,VALID,917.028,VALID,0,VALID,98.6702,VALID,0,VALID,20.0163,VALID,171,VALID,0,
2000-04-05, 00:59:00,VALID,917.011,VALID,0,VALID,98.6269,VALID,-0.0169808,VALID,20.0036,VALID,171,VALID,0,
2000-04-05, 01:00:00,VALID,917.004,VALID,0,VALID,98.5913,VALID,-0.0169808,VALID,19.9942,VALID,171,VALID,0,
2000-04-05, 01:01:00,VALID,916.985,VALID,0,VALID,98.5748,VALID,-0.0339617,VALID,19.9818,VALID,171,VALID,0,
2000-04-05, 01:02:00,VALID,916.991,VALID,0,VALID,98.4998,VALID,0,VALID,19.9525,VALID,171,VALID,0,
2000-04-05, 01:03:00,VALID,916.987,VALID,0,VALID,98.4692,VALID,0,VALID,19.9234,VALID,171,VALID,0,
2000-04-05, 01:04:00,VALID,916.979,VALID,0,VALID,98.4184,VALID,-0.0169808,VALID,19.9137,VALID,171,VALID,0,
2000-04-05, 01:05:00,VALID,916.979,VALID,0,VALID,98.3917,VALID,-0.0339617,VALID,19.8908,VALID,171,VALID,0,
2000-04-05, 01:06:00,VALID,916.992,VALID,0,VALID,98.3815,VALID,-0.0509425,VALID,19.8816,VALID,161,VALID,0,
2000-04-05, 01:07:00,VALID,916.988,VALID,0,VALID,98.2861,VALID,-0.0339617,VALID,19.8528,VALID,128,VALID,0,
2000-04-05, 01:08:00,VALID,916.98,VALID,0,VALID,98.2556,VALID,-0.0339617,VALID,19.8165,VALID,125,VALID,0,
2000-04-05, 01:09:00,VALID,916.978,VALID,0,VALID,98.3319,VALID,-0.0509425,VALID,19.8138,VALID,125,VALID,0,
2000-04-05, 01:10:00,VALID,916.975,VALID,0,VALID,98.4031,VALID,-0.101885,VALID,19.7976,VALID,125,VALID,0,
2000-04-05, 01:11:00,VALID,916.968,VALID,0,VALID,98.4158,VALID,-0.0679233,VALID,19.8011,VALID,125,VALID,0,
2000-04-05, 01:12:00,VALID,916.959,VALID,0,VALID,98.4464,VALID,-0.0849042,VALID,19.7917,VALID,125,VALID,0,
2000-04-05, 01:13:00,VALID,916.942,VALID,0,VALID,98.4972,VALID,-0.0339617,VALID,19.7914,VALID,125,VALID,0,
2000-04-05, 01:14:00,VALID,916.915,VALID,0,VALID,98.5366,VALID,-0.101885,VALID,19.7817,VALID,125,VALID,0,
2000-04-05, 01:15:00,VALID,916.889,VALID,0,VALID,98.6091,VALID,-0.0509425,VALID,19.7912,VALID,125,VALID,0,
2000-04-05, 01:16:00,VALID,916.869,VALID,0,VALID,98.646,VALID,-0.0339617,VALID,19.7944,VALID,125,VALID,0,
2000-04-05, 01:17:00,VALID,916.85,VALID,0,VALID,98.6129,VALID,-0.0509425,VALID,19.7688,VALID,125,VALID,0,
2000-04-05, 01:18:00,VALID,916.839,VALID,0,VALID,98.6117,VALID,-0.0509425,VALID,19.7422,VALID,125,VALID,0,
2000-04-05, 01:19:00,VALID,916.84,VALID,0,VALID,98.5646,VALID,-0.0339617,VALID,19.7104,VALID,125,VALID,0,
2000-04-05, 01:20:00,VALID,916.829,VALID,0,VALID,98.59,VALID,-0.0169808,VALID,19.6749,VALID,125,VALID,0,
2000-04-05, 01:21:00,VALID,916.826,VALID,0,VALID,98.6562,VALID,0,VALID,19.6707,VALID,125,VALID,0,
2000-04-05, 01:22:00,VALID,916.822,VALID,0,VALID,98.7096,VALID,0.0169808,VALID,19.6801,VALID,125,VALID,0,
2000-04-05, 01:23:00,VALID,916.803,VALID,0,VALID,98.6892,VALID,0.0509425,VALID,19.6577,VALID,125,VALID,0,
2000-04-05, 01:24:00,VALID,916.792,VALID,0,VALID,98.6778,VALID,0.0169808,VALID,19.6354,VALID,123,VALID,0,
2000-04-05, 01:25:00,VALID,916.778,VALID,0,VALID,98.66,VALID,0,VALID,19.5993,VALID,98,VALID,0,
2000-04-05, 01:26:00,VALID,916.764,VALID,0,VALID,98.6956,VALID,0.0339617,VALID,19.5862,VALID,90,VALID,0,
2000-04-05, 01:27:00,VALID,916.763,VALID,0,VALID,98.7032,VALID,0.0339617,VALID,19.5606,VALID,86,VALID,0,
2000-04-05, 01:28:00,VALID,916.754,VALID,0,VALID,98.7414,VALID,0.0339617,VALID,19.5576,VALID,86,VALID,0,
2000-04-05, 01:29:00,VALID,916.733,VALID,0,VALID,98.81,VALID,0.0169808,VALID,19.5643,VALID,86,VALID,0,
2000-04-05, 01:30:00,VALID,916.72,VALID,0,VALID,98.9245,VALID,0.0509425,VALID,19.5765,VALID,97,VALID,0,
2000-04-05, 01:31:00,VALID,916.695,VALID,0,VALID,98.899,VALID,0.0339617,VALID,19.5675,VALID,98,VALID,0.0726563,
2000-04-05, 01:32:00,VALID,916.662,VALID,0,VALID,98.8545,VALID,0.0339617,VALID,19.5355,VALID,89,VALID,0.938322,
2000-04-05, 01:33:00,VALID,916.624,VALID,0,VALID,98.9181,VALID,0.0509425,VALID,19.5158,VALID,89,VALID,0.597039,
2000-04-05, 01:34:00,VALID,916.58,VALID,0,VALID,98.955,VALID,0.0339617,VALID,19.5027,VALID,92,VALID,0.391447,
2000-04-05, 01:35:00,VALID,916.571,VALID,0,VALID,98.997,VALID,0.0509425,VALID,19.4863,VALID,107,VALID,0.43109,
2000-04-05, 01:36:00,VALID,916.555,VALID,0,VALID,99.0656,VALID,0.0509425,VALID,19.5057,VALID,103,VALID,0.59924,
2000-04-05, 01:37:00,VALID,916.556,VALID,0,VALID,99.0936,VALID,0.0339617,VALID,19.5094,VALID,97,VALID,0.688117,
2000-04-05, 01:38:00,VALID,916.548,VALID,0,VALID,99.1241,VALID,0.0339617,VALID,19.5027,VALID,95,VALID,1.02129,
2000-04-05, 01:39:00,VALID,916.534,VALID,0,VALID,99.1686,VALID,0,VALID,19.5054,VALID,94,VALID,1.03255,
2000-04-05, 01:40:00,VALID,916.516,VALID,0,VALID,99.2004,VALID,0.0509425,VALID,19.5022,VALID,90,VALID,1.01943,
2000-04-05, 01:41:00,VALID,916.513,VALID,0,VALID,99.2119,VALID,0.0509425,VALID,19.4994,VALID,89,VALID,0.826686,
2000-04-05, 01:42:00,VALID,916.494,VALID,0,VALID,99.2271,VALID,0.0509425,VALID,19.4932,VALID,98,VALID,0.873661,
2000-04-05, 01:43:00,VALID,916.475,VALID,0,VALID,99.2691,VALID,0.0339617,VALID,19.4962,VALID,101,VALID,1.00211,
2000-04-05, 01:44:00,VALID,916.45,VALID,0,VALID,99.2958,VALID,0.0339617,VALID,19.5124,VALID,108,VALID,0.781661,
2000-04-05, 01:45:00,VALID,916.435,VALID,0,VALID,99.3365,VALID,0.0339617,VALID,19.525,VALID,110,VALID,0.476116,
2000-04-05, 01:46:00,VALID,916.417,VALID,0,VALID,99.3695,VALID,0.0339617,VALID,19.5479,VALID,112,VALID,0.00620994,
2000-04-05, 01:47:00,VALID,916.388,VALID,0,VALID,99.3835,VALID,0.0509425,VALID,19.5511,VALID,112,VALID,0,
2000-04-05, 01:48:00,VALID,916.375,VALID,0,VALID,99.4128,VALID,0.0339617,VALID,19.5708,VALID,198,VALID,0.00102796,
2000-04-05, 01:49:00,VALID,916.387,VALID,0,VALID,99.4344,VALID,0,VALID,19.5797,VALID,297,VALID,0,
2000-04-05, 01:50:00,VALID,916.365,VALID,0,VALID,99.4522,VALID,0.0849042,VALID,19.6026,VALID,297,VALID,0.000844595,
2000-04-05, 01:51:00,VALID,916.373,VALID,0,VALID,99.4318,VALID,-0.0339617,VALID,19.6011,VALID,297,VALID,0.00292969,
2000-04-05, 01:52:00,VALID,916.38,VALID,0,VALID,99.4369,VALID,-0.0849042,VALID,19.5879,VALID,297,VALID,0.0130208,
2000-04-05, 01:53:00,VALID,916.383,VALID,0,VALID,99.4535,VALID,-0.0169808,VALID,19.5981,VALID,297,VALID,0.0769231,
2000-04-05, 01:54:00,VALID,916.376,VALID,0,VALID,99.4547,VALID,-0.0849042,VALID,19.6016,VALID,297,VALID,0.0244932,
2000-04-05, 01:55:00,VALID,916.381,VALID,0,VALID,99.47,VALID,-0.0849042,VALID,19.6043,VALID,297,VALID,0,
2000-04-05, 01:56:00,VALID,916.372,VALID,0,VALID,99.4929,VALID,-0.0849042,VALID,19.6105,VALID,297,VALID,0,
2000-04-05, 01:57:00,VALID,916.352,VALID,0,VALID,99.5031,VALID,-0.0679233,VALID,19.614,VALID,304,VALID,0.351367,
2000-04-05, 01:58:00,VALID,916.347,VALID,0,VALID,99.4827,VALID,-0.0169808,VALID,19.5981,VALID,310,VALID,0.471423,
2000-04-05, 01:59:00,VALID,916.333,VALID,0,VALID,99.4713,VALID,-0.0509425,VALID,19.5618,VALID,312,VALID,0.594952,
2000-04-05, 02:00:00,VALID,916.327,VALID,0,VALID,99.4636,VALID,-0.0849042,VALID,19.5464,VALID,307,VALID,0.391653,
2000-04-05, 02:01:00,VALID,916.317,VALID,0,VALID,99.4853,VALID,-0.0169808,VALID,19.5298,VALID,289,VALID,0,
2000-04-05, 02:02:00,VALID,916.31,VALID,0,VALID,99.5031,VALID,-0.0509425,VALID,19.5397,VALID,290,VALID,0,
2000-04-05, 02:03:00,VALID,916.317,VALID,0,VALID,99.5132,VALID,0,VALID,19.5429,VALID,290,VALID,0,
2000-04-05, 02:04:00,VALID,916.316,VALID,0,VALID,99.5476,VALID,-0.0169808,VALID,19.5454,VALID,292,VALID,0,
2000-04-05, 02:05:00,VALID,916.323,VALID,0,VALID,99.5425,VALID,-0.0509425,VALID,19.5593,VALID,303,VALID,0,
2000-04-05, 02:06:00,VALID,916.318,VALID,0,VALID,99.5616,VALID,-0.0169808,VALID,19.5419,VALID,306,VALID,0,
2000-04-05, 02:07:00,VALID,916.326,VALID,0,VALID,99.5552,VALID,-0.0679233,VALID,19.5258,VALID,337,VALID,0,
2000-04-05, 02:08:00,VALID,916.297,VALID,0,VALID,99.5819,VALID,0,VALID,19.5521,VALID,339,VALID,0,
2000-04-05, 02:09:00,VALID,916.293,VALID,0,VALID,99.5908,VALID,0,VALID,19.5519,VALID,298,VALID,0,
2000-04-05, 02:10:00,VALID,916.291,VALID,0,VALID,99.5781,VALID,-0.0509425,VALID,19.5524,VALID,289,VALID,0,
2000-04-05, 02:11:00,VALID,916.278,VALID,0,VALID,99.5616,VALID,0,VALID,19.53,VALID,301,VALID,0,
2000-04-05, 02:12:00,VALID,916.271,VALID,0,VALID,99.5755,VALID,-0.0169808,VALID,19.5129,VALID,297,VALID,0,
2000-04-05, 02:13:00,VALID,916.256,VALID,0,VALID,99.587,VALID,0,VALID,19.5268,VALID,319,VALID,0,
2000-04-05, 02:14:00,VALID,916.247,VALID,0,VALID,99.5933,VALID,0,VALID,19.5066,VALID,317,VALID,0,
2000-04-05, 02:15:00,VALID,916.221,VALID,0,VALID,99.5997,VALID,-0.0169808,VALID,19.5131,VALID,327,VALID,0,
2000-04-05, 02:16:00,VALID,916.199,VALID,0,VALID,99.5895,VALID,-0.0339617,VALID,19.5168,VALID,327,VALID,0,
2000-04-05, 02:17:00,VALID,916.19,VALID,0,VALID,99.6162,VALID,-0.0339617,VALID,19.5158,VALID,327,VALID,0,
2000-04-05, 02:18:00,VALID,916.196,VALID,0,VALID,99.6162,VALID,-0.0339617,VALID,19.5228,VALID,328,VALID,0,
2000-04-05, 02:19:00,VALID,916.184,VALID,0,VALID,99.62,VALID,-0.0339617,VALID,19.5459,VALID,328,VALID,0,
2000-04-05, 02:20:00,VALID,916.179,VALID,0,VALID,99.6302,VALID,-0.0169808,VALID,19.5588,VALID,328,VALID,0,
2000-04-05, 02:21:00,VALID,916.165,VALID,0,VALID,99.6531,VALID,0,VALID,19.5819,VALID,328,VALID,0,
2000-04-05, 02:22:00,VALID,916.158,VALID,0,VALID,99.6404,VALID,0,VALID,19.5583,VALID,328,VALID,0,
2000-04-05, 02:23:00,VALID,916.139,VALID,0,VALID,99.648,VALID,-0.0339617,VALID,19.5814,VALID,323,VALID,0,
2000-04-05, 02:24:00,VALID,916.134,VALID,0,VALID,99.6353,VALID,0,VALID,19.5814,VALID,319,VALID,0,
2000-04-05, 02:25:00,VALID,916.131,VALID,0,VALID,99.6353,VALID,-0.0169808,VALID,19.5551,VALID,319,VALID,0,
2000-04-05, 02:26:00,VALID,916.121,VALID,0,VALID,99.6251,VALID,-0.0169808,VALID,19.5489,VALID,319,VALID,0,
2000-04-05, 02:27:00,VALID,916.111,VALID,0,VALID,99.6404,VALID,-0.0849042,VALID,19.5529,VALID,320,VALID,0,
2000-04-05, 02:28:00,VALID,916.111,VALID,0,VALID,99.6455,VALID,0,VALID,19.5688,VALID,320,VALID,0,
2000-04-05, 02:29:00,VALID,916.105,VALID,0,VALID,99.6366,VALID,-0.0509425,VALID,19.5558,VALID,310,VALID,0,
2000-04-05, 02:30:00,VALID,916.087,VALID,0,VALID,99.6391,VALID,-0.0339617,VALID,19.5526,VALID,303,VALID,0,
2000-04-05, 02:31:00,VALID,916.081,VALID,0,VALID,99.6404,VALID,-0.0849042,VALID,19.5655,VALID,294,VALID,0,
2000-04-05, 02:32:00,VALID,916.052,VALID,0,VALID,99.6391,VALID,-0.101885,VALID,19.5625,VALID,295,VALID,0,
2000-04-05, 02:33:00,VALID,916.053,VALID,0,VALID,99.634,VALID,-0.0509425,VALID,19.5526,VALID,298,VALID,0,
2000-04-05, 02:34:00,VALID,916.066,VALID,0,VALID,99.6468,VALID,-0.0849042,VALID,19.5625,VALID,299,VALID,0,
2000-04-05, 02:35:00,VALID,916.082,VALID,0,VALID,99.6455,VALID,-0.0849042,VALID,19.5558,VALID,284,VALID,0,
2000-04-05, 02:36:00,VALID,916.09,VALID,0,VALID,99.6162,VALID,-0.0339617,VALID,19.5233,VALID,291,VALID,0.241765,
2000-04-05, 02:37:00,VALID,916.066,VALID,0,VALID,99.5768,VALID,-0.0679233,VALID,19.4522,VALID,302,VALID,0.311444,
2000-04-05, 02:38:00,VALID,916.035,VALID,0,VALID,99.5857,VALID,-0.0509425,VALID,19.4261,VALID,302,VALID,0.0131479,
2000-04-05, 02:39:00,VALID,916.029,VALID,0,VALID,99.6061,VALID,-0.0169808,VALID,19.4232,VALID,35,VALID,0.276182,
2000-04-05, 02:40:00,VALID,916.009,VALID,0,VALID,99.6429,VALID,-0.0509425,VALID,19.449,VALID,92,VALID,0.533008,
2000-04-05, 02:41:00,VALID,915.999,VALID,0,VALID,99.662,VALID,0,VALID,19.4644,VALID,99,VALID,0.252804,
2000-04-05, 02:42:00,VALID,915.98,VALID,0,VALID,99.6569,VALID,-0.0339617,VALID,19.4681,VALID,99,VALID,0.120703,
2000-04-05, 02:43:00,VALID,915.978,VALID,0,VALID,99.6544,VALID,-0.0509425,VALID,19.4584,VALID,180,VALID,0.142475,
2000-04-05, 02:44:00,VALID,915.973,VALID,0,VALID,99.6391,VALID,-0.0849042,VALID,19.4428,VALID,276,VALID,0.25,
2000-04-05, 02:45:00,VALID,915.961,VALID,0,VALID,99.6328,VALID,-0.0509425,VALID,19.4202,VALID,281,VALID,0,
2000-04-05, 02:46:00,VALID,915.941,VALID,0,VALID,99.6328,VALID,-0.0849042,VALID,19.407,VALID,282,VALID,0,
2000-04-05, 02:47:00,VALID,915.921,VALID,0,VALID,99.634,VALID,-0.0849042,VALID,19.3844,VALID,282,VALID,0,
2000-04-05, 02:48:00,VALID,915.885,VALID,0,VALID,99.6544,VALID,-0.0509425,VALID,19.3978,VALID,158,VALID,0,
2000-04-05, 02:49:00,VALID,915.855,VALID,0,VALID,99.6722,VALID,-0.0509425,VALID,19.4271,VALID,125,VALID,0.407689,
2000-04-05, 02:50:00,VALID,915.831,VALID,0,VALID,99.6862,VALID,-0.0339617,VALID,19.4495,VALID,120,VALID,0.360085,
2000-04-05, 02:51:00,VALID,915.797,VALID,0,VALID,99.6582,VALID,-0.0679233,VALID,19.4068,VALID,121,VALID,0.481291,
2000-04-05, 02:52:00,VALID,915.766,VALID,0,VALID,99.6607,VALID,-0.0509425,VALID,19.4102,VALID,118,VALID,0.221875,
2000-04-05, 02:53:00,VALID,915.748,VALID,0,VALID,99.6569,VALID,-0.0169808,VALID,19.4137,VALID,108,VALID,0.42537,
2000-04-05, 02:54:00,VALID,915.739,VALID,0,VALID,99.662,VALID,-0.0339617,VALID,19.4107,VALID,99,VALID,0.482113,
2000-04-05, 02:55:00,VALID,915.724,VALID,0,VALID,99.6798,VALID,-0.0509425,VALID,19.4035,VALID,102,VALID,0.706003,
2000-04-05, 02:56:00,VALID,915.714,VALID,0,VALID,99.6468,VALID,-0.0509425,VALID,19.3809,VALID,100,VALID,0.680088,
2000-04-05, 02:57:00,VALID,915.722,VALID,0,VALID,99.6277,VALID,-0.0509425,VALID,19.3583,VALID,104,VALID,0.619932,
2000-04-05, 02:58:00,VALID,915.733,VALID,0,VALID,99.6213,VALID,-0.0849042,VALID,19.3322,VALID,103,VALID,0.454153,
2000-04-05, 02:59:00,VALID,915.745,VALID,0,VALID,99.62,VALID,-0.0339617,VALID,19.3292,VALID,101,VALID,0.578906,
2000-04-05, 03:00:00,VALID,915.748,VALID,0,VALID,99.6188,VALID,0,VALID,19.3136,VALID,105,VALID,0.49566,
2000-04-05, 03:01:00,VALID,915.751,VALID,0,VALID,99.6582,VALID,-0.0509425,VALID,19.33,VALID,113,VALID,0.10853,
2000-04-05, 03:02:00,VALID,915.772,VALID,0,VALID,99.6607,VALID,-0.0169808,VALID,19.3332,VALID,117,VALID,0,
2000-04-05, 03:03:00,VALID,915.776,VALID,0,VALID,99.6569,VALID,-0.0339617,VALID,19.3329,VALID,117,VALID,0.435937,
2000-04-05, 03:04:00,VALID,915.783,VALID,0,VALID,99.6569,VALID,-0.0679233,VALID,19.33,VALID,89,VALID,0.662373,
2000-04-05, 03:05:00,VALID,915.782,VALID,0,VALID,99.6607,VALID,-0.0679233,VALID,19.3103,VALID,97,VALID,0.582442,
2000-04-05, 03:06:00,VALID,915.802,VALID,0,VALID,99.6633,VALID,-0.0169808,VALID,19.3141,VALID,110,VALID,0.429464,
2000-04-05, 03:07:00,VALID,915.811,VALID,0,VALID,99.6582,VALID,-0.0339617,VALID,19.3143,VALID,105,VALID,0.532652,
2000-04-05, 03:08:00,VALID,915.821,VALID,0,VALID,99.6709,VALID,-0.0339617,VALID,19.3111,VALID,102,VALID,0.516927,
2000-04-05, 03:09:00,VALID,915.833,VALID,0,VALID,99.6785,VALID,-0.0169808,VALID,19.3076,VALID,102,VALID,0.0176809,
2000-04-05, 03:10:00,VALID,915.84,VALID,0,VALID,99.6747,VALID,-0.0509425,VALID,19.3106,VALID,97,VALID,0,
2000-04-05, 03:11:00,VALID,915.855,VALID,0,VALID,99.676,VALID,-0.0679233,VALID,19.3076,VALID,104,VALID,0,
2000-04-05, 03:12:00,VALID,915.854,VALID,0,VALID,99.6913,VALID,-0.0509425,VALID,19.3103,VALID,95,VALID,0,
2000-04-05, 03:13:00,VALID,915.851,VALID,0,VALID,99.6658,VALID,-0.0849042,VALID,19.2718,VALID,108,VALID,0,
2000-04-05, 03:14:00,VALID,915.86,VALID,0,VALID,99.6582,VALID,-0.0509425,VALID,19.2591,VALID,104,VALID,0,
2000-04-05, 03:15:00,VALID,915.872,VALID,0,VALID,99.6506,VALID,-0.0169808,VALID,19.2395,VALID,103,VALID,0,
2000-04-05, 03:16:00,VALID,915.866,VALID,0,VALID,99.6684,VALID,-0.0679233,VALID,19.2395,VALID,100,VALID,0,
2000-04-05, 03:17:00,VALID,915.886,VALID,0,VALID,99.6824,VALID,-0.0169808,VALID,19.2462,VALID,100,VALID,0,
2000-04-05, 03:18:00,VALID,915.884,VALID,0,VALID,99.7065,VALID,-0.0509425,VALID,19.2656,VALID,101,VALID,0,
2000-04-05, 03:19:00,VALID,915.887,VALID,0,VALID,99.6735,VALID,-0.0169808,VALID,19.2296,VALID,101,VALID,0,
2000-04-05, 03:20:00,VALID,915.886,VALID,0,VALID,99.6798,VALID,-0.0849042,VALID,19.2365,VALID,101,VALID,0,
2000-04-05, 03:21:00,VALID,915.88,VALID,0,VALID,99.6658,VALID,0,VALID,19.204,VALID,101,VALID,0,
2000-04-05, 03:22:00,VALID,915.883,VALID,0,VALID,99.6658,VALID,-0.0339617,VALID,19.2042,VALID,101,VALID,0,
2000-04-05, 03:23:00,VALID,915.862,VALID,0,VALID,99.6798,VALID,-0.0679233,VALID,19.1978,VALID,101,VALID,0,
2000-04-05, 03:24:00,VALID,915.864,VALID,0,VALID,99.6989,VALID,-0.0339617,VALID,19.2072,VALID,101,VALID,0,
2000-04-05, 03:25:00,VALID,915.842,VALID,0,VALID,99.7141,VALID,-0.0339617,VALID,19.2171,VALID,101,VALID,0,
2000-04-05, 03:26:00,VALID,915.827,VALID,0,VALID,99.7091,VALID,-0.0849042,VALID,19.2268,VALID,101,VALID,0,
2000-04-05, 03:27:00,VALID,915.825,VALID,0,VALID,99.7078,VALID,-0.0169808,VALID,19.2139,VALID,101,VALID,0,
2000-04-05, 03:28:00,VALID,915.826,VALID,0,VALID,99.6887,VALID,-0.0679233,VALID,19.1913,VALID,101,VALID,0,
2000-04-05, 03:29:00,VALID,915.819,VALID,0,VALID,99.6836,VALID,-0.0509425,VALID,19.1851,VALID,101,VALID,0,
2000-04-05, 03:30:00,VALID,915.829,VALID,0,VALID,99.6874,VALID,-0.0679233,VALID,19.1786,VALID,101,VALID,0,
2000-04-05, 03:31:00,VALID,915.837,VALID,0,VALID,99.6862,VALID,-0.0679233,VALID,19.1659,VALID,101,VALID,0,
2000-04-05, 03:32:00,VALID,915.842,VALID,0,VALID,99.6747,VALID,-0.0509425,VALID,19.1563,VALID,101,VALID,0,
2000-04-05, 03:33:00,VALID,915.838,VALID,0,VALID,99.6798,VALID,-0.0679233,VALID,19.1528,VALID,103,VALID,0,
2000-04-05, 03:34:00,VALID,915.832,VALID,0,VALID,99.6709,VALID,-0.101885,VALID,19.124,VALID,114,VALID,0,
2000-04-05, 03:35:00,VALID,915.815,VALID,0,VALID,99.6773,VALID,-0.0509425,VALID,19.1101,VALID,114,VALID,0,
2000-04-05, 03:36:00,VALID,915.83,VALID,0,VALID,99.6887,VALID,-0.0679233,VALID,19.1202,VALID,116,VALID,0,
2000-04-05, 03:37:00,VALID,915.847,VALID,0,VALID,99.6963,VALID,0.0339617,VALID,19.1123,VALID,117,VALID,0,
2000-04-05, 03:38:00,VALID,915.861,VALID,0,VALID,99.6887,VALID,0.0679233,VALID,19.1093,VALID,117,VALID,0,
2000-04-05, 03:39:00,VALID,915.854,VALID,0,VALID,99.6811,VALID,0.0509425,VALID,19.1029,VALID,124,VALID,0,
2000-04-05, 03:40:00,VALID,915.858,VALID,0,VALID,99.6722,VALID,0.0679233,VALID,19.0768,VALID,254,VALID,0,